Time,TemperatureF,DewpointF,PressureIn,WindDirection,WindDirectionDegrees,WindSpeedMPH,WindSpeedGustMPH,Humidity,HourlyPrecipIn,Conditions,Clouds,dailyrainin,SoftwareType,DateUTC
2013-10-27 00:11:00,36.0,32.0,29.97,WSW,238,0.0,2.0,86,0.00,,,0.00,weatherlink.com 1.10,2013-10-27 04:11:00,
2013-10-27 00:26:00,35.5,32.0,29.98,West,267,0.0,3.0,87,0.00,,,0.00,weatherlink.com 1.10,2013-10-27 04:26:00,
2013-10-27 00:41:00,35.3,32.0,29.98,West,269,0.0,3.0,87,0.00,,,0.00,weatherlink.com 1.10,2013-10-27 04:41:00,
2013-10-27 00:56:00,35.2,32.0,29.98,WSW,248,1.0,3.0,88,0.00,,,0.00,weatherlink.com 1.10,2013-10-27 04:56:00,
2013-10-27 01:11:00,35.4,32.0,29.98,WSW,248,3.0,6.0,88,0.00,,,0.00,weatherlink.com 1.10,2013-10-27 05:11:00,
2013-10-27 01:26:00,36.0,32.0,29.98,SW,217,0.0,5.0,86,0.00,,,0.00,weatherlink.com 1.10,2013-10-27 05:26:00,
2013-10-27 01:41:00,35.9,32.0,29.98,SW,231,0.0,3.0,86,0.00,,,0.00,weatherlink.com 1.10,2013-10-27 05:41:00,
2013-10-27 01:56:00,35.6,32.0,29.99,WNW,290,0.0,4.0,86,0.00,,,0.00,weatherlink.com 1.10,2013-10-27 05:56:00,
2013-10-27 02:11:00,35.6,32.0,29.98,West,269,0.0,6.0,87,0.00,,,0.00,weatherlink.com 1.10,2013-10-27 06:11:00,
2013-10-27 02:26:00,35.5,32.0,29.98,NW,307,1.0,2.0,86,0.00,,,0.00,weatherlink.com 1.10,2013-10-27 06:26:00,
2013-10-27 02:41:00,35.7,32.0,29.98,WNW,287,0.0,3.0,87,0.00,,,0.00,weatherlink.com 1.10,2013-10-27 06:41:00,
2013-10-27 02:58:00,36.3,33.0,29.98,West,262,0.0,3.0,86,0.00,,,0.00,weatherlink.com 1.10,2013-10-27 06:58:00,
2013-10-27 03:12:00,35.9,32.0,29.97,WSW,250,0.0,5.0,86,0.00,,,0.00,weatherlink.com 1.10,2013-10-27 07:12:00,
2013-10-27 03:27:00,34.8,31.0,29.97,WSW,250,0.0,0.0,87,0.00,,,0.00,weatherlink.com 1.10,2013-10-27 07:27:00,
2013-10-27 03:42:00,34.2,31.0,29.97,WSW,242,0.0,1.0,89,0.00,,,0.00,weatherlink.com 1.10,2013-10-27 07:42:00,
2013-10-27 03:57:00,33.7,31.0,29.97,SW,235,3.0,3.0,89,0.00,,,0.00,weatherlink.com 1.10,2013-10-27 07:57:00,
2013-10-27 04:12:00,33.6,31.0,29.97,West,262,0.0,2.0,90,0.00,,,0.00,weatherlink.com 1.10,2013-10-27 08:12:00,
2013-10-27 04:27:00,33.5,31.0,29.98,West,259,0.0,2.0,91,0.00,,,0.00,weatherlink.com 1.10,2013-10-27 08:27:00,
2013-10-27 04:42:00,33.4,31.0,29.98,WSW,250,0.0,3.0,91,0.00,,,0.00,weatherlink.com 1.10,2013-10-27 08:42:00,
2013-10-27 04:57:00,33.6,31.0,29.98,West,262,0.0,2.0,91,0.00,,,0.00,weatherlink.com 1.10,2013-10-27 08:57:00,
2013-10-27 05:12:00,33.4,31.0,29.98,WSW,238,0.0,0.0,91,0.00,,,0.00,weatherlink.com 1.10,2013-10-27 09:12:00,
2013-10-27 05:27:00,33.2,31.0,29.98,WSW,246,0.0,0.0,91,0.00,,,0.00,weatherlink.com 1.10,2013-10-27 09:27:00,
2013-10-27 05:42:00,33.4,31.0,29.99,SW,226,0.0,1.0,91,0.00,,,0.00,weatherlink.com 1.10,2013-10-27 09:42:00,
2013-10-27 05:57:00,33.5,31.0,29.98,WSW,245,0.0,1.0,91,0.00,,,0.00,weatherlink.com 1.10,2013-10-27 09:57:00,
2013-10-27 06:12:00,33.6,32.0,29.99,WSW,238,0.0,0.0,92,0.00,,,0.00,weatherlink.com 1.10,2013-10-27 10:12:00,
2013-10-27 06:27:00,33.6,32.0,29.99,WSW,238,0.0,0.0,92,0.00,,,0.00,weatherlink.com 1.10,2013-10-27 10:27:00,
2013-10-27 06:42:00,33.4,31.0,29.99,West,260,1.0,3.0,92,0.00,,,0.00,weatherlink.com 1.10,2013-10-27 10:42:00,
2013-10-27 06:57:00,33.3,31.0,30.00,SW,234,2.0,2.0,92,0.00,,,0.00,weatherlink.com 1.10,2013-10-27 10:57:00,
2013-10-27 07:12:00,32.9,31.0,30.00,WSW,246,0.0,1.0,92,0.00,,,0.00,weatherlink.com 1.10,2013-10-27 11:12:00,
2013-10-27 07:27:00,32.4,30.0,30.00,WSW,238,1.0,3.0,92,0.00,,,0.00,weatherlink.com 1.10,2013-10-27 11:27:00,
2013-10-27 07:42:00,32.0,30.0,30.01,WSW,240,0.0,2.0,92,0.00,,,0.00,weatherlink.com 1.10,2013-10-27 11:42:00,
2013-10-27 07:57:00,31.5,30.0,30.01,West,269,0.0,0.0,92,0.00,,,0.00,weatherlink.com 1.10,2013-10-27 11:57:00,
2013-10-27 08:12:00,31.1,29.0,30.01,SSE,154,0.0,0.0,92,0.00,,,0.00,weatherlink.com 1.10,2013-10-27 12:12:00,
2013-10-27 08:27:00,30.9,29.0,30.02,SW,218,0.0,0.0,93,0.00,,,0.00,weatherlink.com 1.10,2013-10-27 12:27:00,
2013-10-27 08:42:00,31.3,30.0,30.02,SW,229,2.0,3.0,93,0.00,,,0.00,weatherlink.com 1.10,2013-10-27 12:42:00,
2013-10-27 08:57:00,32.7,30.0,30.03,SW,235,2.0,4.0,91,0.00,,,0.00,weatherlink.com 1.10,2013-10-27 12:57:00,
2013-10-27 09:12:00,34.1,31.0,30.03,West,260,2.0,3.0,88,0.00,,,0.00,weatherlink.com 1.10,2013-10-27 13:12:00,
2013-10-27 09:27:00,35.2,31.0,30.03,WSW,243,0.0,2.0,85,0.00,,,0.00,weatherlink.com 1.10,2013-10-27 13:27:00,
2013-10-27 09:42:00,36.0,32.0,30.03,SW,236,3.0,6.0,84,0.00,,,0.00,weatherlink.com 1.10,2013-10-27 13:42:00,
2013-10-27 09:57:00,36.9,32.0,30.04,SSW,201,2.0,6.0,83,0.00,,,0.00,weatherlink.com 1.10,2013-10-27 13:57:00,
2013-10-27 10:12:00,37.7,32.0,30.04,WSW,245,3.0,6.0,81,0.00,,,0.00,weatherlink.com 1.10,2013-10-27 14:12:00,
2013-10-27 10:27:00,38.9,34.0,30.05,SW,225,6.0,7.0,81,0.00,,,0.00,weatherlink.com 1.10,2013-10-27 14:27:00,
2013-10-27 10:42:00,39.9,34.0,30.04,WNW,284,2.0,5.0,78,0.00,,,0.00,weatherlink.com 1.10,2013-10-27 14:42:00,
2013-10-27 10:57:00,40.9,33.0,30.04,SW,221,2.0,6.0,74,0.00,,,0.00,weatherlink.com 1.10,2013-10-27 14:57:00,
2013-10-27 11:13:00,42.0,35.0,30.04,West,275,2.0,7.0,75,0.00,,,0.00,weatherlink.com 1.10,2013-10-27 15:13:00,
2013-10-27 11:28:00,42.9,34.0,30.04,SW,235,1.0,8.0,71,0.00,,,0.00,weatherlink.com 1.10,2013-10-27 15:28:00,
2013-10-27 11:43:00,43.2,32.0,30.04,West,262,8.0,9.0,66,0.00,,,0.00,weatherlink.com 1.10,2013-10-27 15:43:00,
2013-10-27 11:58:00,44.3,33.0,30.04,WSW,245,5.0,7.0,65,0.00,,,0.00,weatherlink.com 1.10,2013-10-27 15:58:00,
2013-10-27 12:13:00,44.9,32.0,30.04,WSW,243,5.0,9.0,62,0.00,,,0.00,weatherlink.com 1.10,2013-10-27 16:13:00,
2013-10-27 12:28:00,45.1,33.0,30.03,SSE,148,4.0,10.0,62,0.00,,,0.00,weatherlink.com 1.10,2013-10-27 16:28:00,
2013-10-27 12:43:00,45.6,32.0,30.03,SW,226,8.0,9.0,60,0.00,,,0.00,weatherlink.com 1.10,2013-10-27 16:43:00,
2013-10-27 12:58:00,46.0,33.0,30.02,SW,226,3.0,12.0,61,0.00,,,0.00,weatherlink.com 1.10,2013-10-27 16:58:00,
2013-10-27 13:13:00,46.4,33.0,30.02,SW,233,2.0,9.0,61,0.00,,,0.00,weatherlink.com 1.10,2013-10-27 17:13:00,
2013-10-27 13:28:00,47.5,35.0,30.00,West,259,5.0,6.0,62,0.00,,,0.00,weatherlink.com 1.10,2013-10-27 17:28:00,
2013-10-27 13:43:00,47.9,35.0,29.99,South,176,3.0,11.0,61,0.00,,,0.00,weatherlink.com 1.10,2013-10-27 17:43:00,
2013-10-27 13:58:00,48.3,35.0,29.98,SSW,204,7.0,13.0,60,0.00,,,0.00,weatherlink.com 1.10,2013-10-27 17:58:00,
2013-10-27 14:13:00,48.7,36.0,29.98,SW,226,10.0,16.0,61,0.00,,,0.00,weatherlink.com 1.10,2013-10-27 18:13:00,
2013-10-27 14:29:00,48.4,35.0,29.98,West,264,7.0,13.0,61,0.00,,,0.00,weatherlink.com 1.10,2013-10-27 18:29:00,
2013-10-27 14:43:00,48.1,36.0,29.97,SSW,210,1.0,8.0,63,0.00,,,0.00,weatherlink.com 1.10,2013-10-27 18:43:00,
2013-10-27 14:58:00,48.7,36.0,29.97,West,260,7.0,10.0,62,0.00,,,0.00,weatherlink.com 1.10,2013-10-27 18:58:00,
2013-10-27 15:13:00,48.6,36.0,29.97,West,259,2.0,13.0,62,0.00,,,0.00,weatherlink.com 1.10,2013-10-27 19:13:00,
2013-10-27 15:28:00,48.9,36.0,29.96,SSW,207,4.0,11.0,61,0.00,,,0.00,weatherlink.com 1.10,2013-10-27 19:28:00,
2013-10-27 15:43:00,50.7,37.0,29.96,SSW,205,6.0,15.0,59,0.00,,,0.00,weatherlink.com 1.10,2013-10-27 19:43:00,
2013-10-27 15:58:00,50.9,36.0,29.96,WSW,237,12.0,15.0,57,0.00,,,0.00,weatherlink.com 1.10,2013-10-27 19:58:00,
2013-10-27 16:13:00,51.5,36.0,29.96,WSW,237,9.0,10.0,55,0.00,,,0.00,weatherlink.com 1.10,2013-10-27 20:13:00,
2013-10-27 16:28:00,51.3,35.0,29.95,SSW,193,7.0,12.0,55,0.00,,,0.00,weatherlink.com 1.10,2013-10-27 20:28:00,
2013-10-27 16:43:00,51.6,35.0,29.95,WNW,296,5.0,9.0,53,0.00,,,0.00,weatherlink.com 1.10,2013-10-27 20:43:00,
2013-10-27 16:58:00,52.1,35.0,29.95,SW,231,13.0,13.0,53,0.00,,,0.00,weatherlink.com 1.10,2013-10-27 20:58:00,
2013-10-27 17:13:00,52.0,35.0,29.95,WNW,293,3.0,11.0,53,0.00,,,0.00,weatherlink.com 1.10,2013-10-27 21:13:00,
2013-10-27 17:28:00,51.8,35.0,29.95,SW,225,1.0,9.0,53,0.00,,,0.00,weatherlink.com 1.10,2013-10-27 21:28:00,
2013-10-27 17:43:00,51.6,35.0,29.95,West,269,4.0,8.0,53,0.00,,,0.00,weatherlink.com 1.10,2013-10-27 21:43:00,
2013-10-27 17:58:00,51.4,35.0,29.95,WSW,251,4.0,9.0,53,0.00,,,0.00,weatherlink.com 1.10,2013-10-27 21:58:00,
2013-10-27 18:13:00,50.3,34.0,29.95,WSW,237,9.0,10.0,54,0.00,,,0.00,weatherlink.com 1.10,2013-10-27 22:13:00,
2013-10-27 18:28:00,49.5,34.0,29.95,WSW,252,4.0,6.0,56,0.00,,,0.00,weatherlink.com 1.10,2013-10-27 22:28:00,
2013-10-27 18:43:00,48.3,34.0,29.95,SSW,211,0.0,5.0,59,0.00,,,0.00,weatherlink.com 1.10,2013-10-27 22:43:00,
2013-10-27 18:58:00,47.1,34.0,29.96,SSW,204,0.0,2.0,61,0.00,,,0.00,weatherlink.com 1.10,2013-10-27 22:58:00,
2013-10-27 19:13:00,46.0,34.0,29.96,SSW,207,0.0,3.0,63,0.00,,,0.00,weatherlink.com 1.10,2013-10-27 23:13:00,
2013-10-27 19:28:00,45.4,34.0,29.95,SW,233,0.0,3.0,65,0.00,,,0.00,weatherlink.com 1.10,2013-10-27 23:28:00,
2013-10-27 19:43:00,44.7,34.0,29.95,SW,224,0.0,3.0,66,0.00,,,0.00,weatherlink.com 1.10,2013-10-27 23:43:00,
2013-10-27 19:58:00,44.1,34.0,29.95,SW,233,0.0,4.0,67,0.00,,,0.00,weatherlink.com 1.10,2013-10-27 23:58:00,
2013-10-27 20:13:00,43.6,34.0,29.95,SSE,156,2.0,4.0,68,0.00,,,0.00,weatherlink.com 1.10,2013-10-28 00:13:00,
2013-10-27 20:28:00,43.2,33.0,29.96,WSW,245,0.0,3.0,68,0.00,,,0.00,weatherlink.com 1.10,2013-10-28 00:28:00,
2013-10-27 20:43:00,42.2,33.0,29.97,West,272,0.0,0.0,70,0.00,,,0.00,weatherlink.com 1.10,2013-10-28 00:43:00,
2013-10-27 20:58:00,41.7,33.0,29.97,WSW,250,0.0,2.0,71,0.00,,,0.00,weatherlink.com 1.10,2013-10-28 00:58:00,
2013-10-27 21:13:00,41.6,33.0,29.97,SW,219,2.0,2.0,71,0.00,,,0.00,weatherlink.com 1.10,2013-10-28 01:13:00,
2013-10-27 21:28:00,41.7,33.0,29.97,SW,229,0.0,5.0,71,0.00,,,0.00,weatherlink.com 1.10,2013-10-28 01:28:00,
2013-10-27 21:43:00,41.3,33.0,29.98,SSW,210,0.0,2.0,71,0.00,,,0.00,weatherlink.com 1.10,2013-10-28 01:43:00,
2013-10-27 21:59:00,40.7,32.0,29.98,SSE,163,0.0,1.0,72,0.00,,,0.00,weatherlink.com 1.10,2013-10-28 01:59:00,
2013-10-27 22:14:00,40.8,32.0,29.97,SW,215,0.0,4.0,71,0.00,,,0.00,weatherlink.com 1.10,2013-10-28 02:14:00,
2013-10-27 22:29:00,40.7,32.0,29.98,NW,309,0.0,3.0,71,0.00,,,0.00,weatherlink.com 1.10,2013-10-28 02:29:00,
2013-10-27 22:44:00,40.0,32.0,30.00,NNW,334,0.0,0.0,72,0.00,,,0.00,weatherlink.com 1.10,2013-10-28 02:44:00,
2013-10-27 22:59:00,38.5,32.0,30.01,NNW,335,0.0,0.0,76,0.00,,,0.00,weatherlink.com 1.10,2013-10-28 02:59:00,
2013-10-27 23:14:00,37.9,32.0,30.02,NNW,334,0.0,0.0,78,0.00,,,0.00,weatherlink.com 1.10,2013-10-28 03:14:00,
2013-10-27 23:29:00,37.5,32.0,30.02,NNW,334,0.0,0.0,80,0.00,,,0.00,weatherlink.com 1.10,2013-10-28 03:29:00,
2013-10-27 23:44:00,36.5,31.0,30.02,NNW,335,0.0,0.0,81,0.00,,,0.00,weatherlink.com 1.10,2013-10-28 03:44:00,
2013-10-27 23:59:00,35.6,31.0,30.02,NNW,334,0.0,0.0,83,0.00,,,0.00,weatherlink.com 1.10,2013-10-28 03:59:00,